Location: Arrodets-la-Barthe
(43.0306°N, 0.2829°E)
Time: 14:42:57
(UTC+00:00)

ISS - Visible Passes

Search period start: 01 December 2022 00:00
Search period end: 11 December 2022 00:00
Orbit: 414 x 421 km, 51.6° (Epoch: 01 December)

Date Brightness Start Highest point End Pass type
(mag) Time Alt. Az. Time Alt. Az. Time Alt. Az.
01 Dec -2.2 18:27:12 10° NW 18:29:04 27° NNW 18:29:04 27° NNW visible
02 Dec -2.8 17:39:06 10° NW 17:42:08 31° NNE 17:43:05 26° NE visible
02 Dec -0.4 19:15:46 10° WNW 19:16:01 12° WNW 19:16:01 12° WNW visible
03 Dec -3.1 18:27:26 10° WNW 18:30:05 52° WNW 18:30:05 52° WNW visible
04 Dec -3.8 17:39:06 10° NW 17:42:25 62° NNE 17:44:15 24° ESE visible
04 Dec -0.4 19:16:32 10° W 19:17:13 13° W 19:17:13 13° W visible
05 Dec -2.0 18:27:37 10° WNW 18:30:35 29° SW 18:31:34 25° S visible
06 Dec -2.9 17:38:54 10° WNW 17:42:09 51° SW 17:45:24 10° SE visible
07 Dec -0.5 18:28:42 10° WSW 18:29:49 11° SW 18:30:55 10° SSW visible
08 Dec -0.9 17:38:50 10° W 17:41:19 19° SW 17:43:46 10° S visible
